Location: Boda
(47.1872°N, 9.5454°E)
Time: 18:43:36
(UTC+00:00)

Resurs 1-4 Rocket - Pass Details

Date: 14 May 2021
Orbit: 800 x 814 km, 98.6° (Epoch: 15 June)

Event Time Altitude Azimuth Distance (km) Brightness Sun altitude
Rises 03:06:34 0° 357° (N) 3,321 5.8 -6.6°
Reaches altitude 10° 03:10:51 10° 324° (NW) 2,385 4.6 -6.0°
Maximum altitude 03:12:13 11° 309° (NW) 2,312 4.3 -5.8°
Drops below altitude 10° 03:13:35 10° 293° (WNW) 2,383 4.3 -5.6°
Enters shadow 03:17:05 - 264° (W) 3,087 4.6 -5.2°
